Breckenridge, TX

2:34 PM CST on January 23, 2018 (GMT -0600)
Stephens County

Weather History for KBKD - April, 2011

Change the Weather History Date:

Friday, April 1, 2011

  Actual Average (KMWL) Record (KMWL)
Temperature  
Mean Temperature 70 °F -  
Max Temperature 86 °F 70 °F 91 °F (2012)
Min Temperature 53 °F 49 °F 39 °F (2009)
Cooling Degree Days 4    
Growing Degree Days 20 (Base 50)    
Moisture  
Dew Point 41 °F    
Average Humidity 37    
Maximum Humidity 72    
Minimum Humidity 17    
Precipitation  
Precipitation 0.00 in - - ()
Sea Level Pressure  
Sea Level Pressure 29.75 in    
Wind  
Wind Speed 11 mph (ENE)    
Max Wind Speed 21 mph    
Max Gust Speed 28 mph    
Visibility 10 miles    
Events      
Averages and records for this station are not official NWS values.
T = Trace of Precipitation, MM = Missing Value Source: NWS Daily Summary

Daily Weather History Graph

Daily Weather History Graph

Search for Another Location

Airport or City:

Trip Planner

Search our weather history database for the weather conditions in past years. The results will help you decide how hot, cold, wet, or windy it might be!

Date:

Astronomy

Apr. 01, 2011 Rise Set
Actual Time 7:23 AM CDT 7:55 PM CDT
Civil Twilight 6:59 AM CDT 8:20 PM CDT
Nautical Twilight 6:30 AM CDT 8:49 PM CDT
Astronomical Twilight 6:00 AM CDT 9:19 PM CDT
Moon 6:06 AM CDT (4/1) 6:31 PM CDT (4/1)
Length of Visible Light 13h 21m
Length of Day
12h 31m
Waning Crescent, 3% of the Moon is Illuminated
Apr 1
Waning Crescent
Apr 3
New
Apr 11
First Quarter
Apr 17
Full
Apr 24
Last Quarter

Hourly Weather History & Observations

Time (CDT) Temp. Dew Point Humidity Pressure Visibility Wind Dir Wind Speed Gust Speed Precip Events Conditions
12:15 AM 60.8 °F 35.6 °F 39% 29.77 in 10.0 mi SSE 11.5 mph - N/A   Clear
12:35 AM 60.8 °F 35.6 °F 39% 29.75 in 10.0 mi SSE 12.7 mph - N/A   Clear
12:55 AM 59.0 °F 35.6 °F 42% 29.75 in 10.0 mi SSE 11.5 mph - N/A   Clear
1:15 AM 59.0 °F 35.6 °F 42% 29.74 in 10.0 mi SSE 12.7 mph - N/A   Clear
1:35 AM 57.2 °F 35.6 °F 44% 29.74 in 10.0 mi SSE 11.5 mph - N/A   Clear
1:55 AM 57.2 °F 35.6 °F 44% 29.74 in 10.0 mi SSE 8.1 mph - N/A   Clear
2:15 AM 55.4 °F 35.6 °F 47% 29.71 in 10.0 mi SE 8.1 mph - N/A   Clear
2:35 AM 55.4 °F 35.6 °F 47% 29.71 in 10.0 mi SSE 6.9 mph - N/A   Clear
2:55 AM 59.0 °F 35.6 °F 42% 29.71 in 10.0 mi South 5.8 mph - N/A   Clear
3:15 AM 59.0 °F 35.6 °F 42% 29.70 in 10.0 mi South 5.8 mph - N/A   Clear
3:35 AM 57.2 °F 35.6 °F 44% 29.69 in 10.0 mi SSE 4.6 mph - N/A   Clear
3:55 AM 57.2 °F 35.6 °F 44% 29.68 in 10.0 mi South 4.6 mph - N/A   Clear
4:15 AM 59.0 °F 37.4 °F 45% 29.68 in 10.0 mi South 6.9 mph - N/A   Clear
4:35 AM 59.0 °F 39.2 °F 48% 29.68 in 10.0 mi SSE 4.6 mph - N/A   Clear
4:55 AM 53.6 °F 39.2 °F 58% 29.68 in 10.0 mi South 5.8 mph - N/A   Clear
5:15 AM 55.4 °F 41.0 °F 58% 29.68 in 10.0 mi SSE 6.9 mph - N/A   Clear
5:35 AM 53.6 °F 41.0 °F 62% 29.68 in 10.0 mi SSE 5.8 mph - N/A   Clear
5:55 AM 53.6 °F 41.0 °F 62% 29.68 in 10.0 mi SSE 5.8 mph - N/A   Clear
6:15 AM 55.4 °F 42.8 °F 63% 29.68 in 10.0 mi SSE 5.8 mph - N/A   Clear
6:35 AM 53.6 °F 42.8 °F 67% 29.69 in 10.0 mi SSE 5.8 mph - N/A   Clear
6:55 AM 55.4 °F 44.6 °F 67% 29.69 in 10.0 mi SSE 4.6 mph - N/A   Clear
7:15 AM 55.4 °F 44.6 °F 67% 29.69 in 10.0 mi SSE 5.8 mph - N/A   Clear
7:35 AM 55.4 °F 44.6 °F 67% 29.69 in 10.0 mi SE 4.6 mph - N/A   Clear
7:55 AM 55.4 °F 46.4 °F 72% 29.70 in 10.0 mi SE 3.5 mph - N/A   Clear
8:15 AM 59.0 °F 46.4 °F 63% 29.71 in 10.0 mi ESE 3.5 mph - N/A   Clear
8:35 AM 60.8 °F 50.0 °F 68% 29.73 in 10.0 mi NE 3.5 mph - N/A   Clear
8:55 AM 68.0 °F 53.6 °F 60% 29.73 in 10.0 mi SSW 8.1 mph - N/A   Clear
9:15 AM 71.6 °F 55.4 °F 57% 29.73 in 10.0 mi SW 18.4 mph 23.0 mph N/A   Clear
9:35 AM 71.6 °F 55.4 °F 57% 29.73 in 10.0 mi SW 15.0 mph 21.9 mph N/A   Clear
9:55 AM 75.2 °F 55.4 °F 50% 29.75 in 10.0 mi West 16.1 mph 23.0 mph N/A   Clear
10:15 AM 77.0 °F 53.6 °F 44% 29.74 in 10.0 mi WSW 20.7 mph - N/A   Clear
10:35 AM 77.0 °F 53.6 °F 44% 29.74 in 10.0 mi SW 16.1 mph - N/A   Clear
10:55 AM 78.8 °F 51.8 °F 39% 29.73 in 10.0 mi SW 12.7 mph 17.3 mph N/A   Clear
11:15 AM 82.4 °F 44.6 °F 26% 29.73 in 10.0 mi West 18.4 mph 27.6 mph N/A   Clear
11:35 AM 82.4 °F 44.6 °F 26% 29.73 in 10.0 mi WNW 17.3 mph 23.0 mph N/A   Clear
11:55 AM 82.4 °F 46.4 °F 28% 29.74 in 10.0 mi West 15.0 mph 24.2 mph N/A   Clear
12:15 PM 82.4 °F 44.6 °F 26% 29.75 in 10.0 mi NNW 17.3 mph 23.0 mph N/A   Clear
12:35 PM 82.4 °F 42.8 °F 25% 29.76 in 10.0 mi NNW 15.0 mph 20.7 mph N/A   Clear
12:55 PM 82.4 °F 42.8 °F 25% 29.76 in 10.0 mi NW 15.0 mph 21.9 mph N/A   Clear
1:15 PM 82.4 °F 41.0 °F 23% 29.76 in 10.0 mi NW 12.7 mph 19.6 mph N/A   Clear
1:35 PM 82.4 °F 37.4 °F 20% 29.76 in 10.0 mi NNW 11.5 mph 17.3 mph N/A   Clear
1:55 PM 82.4 °F 39.2 °F 21% 29.76 in 10.0 mi NW 11.5 mph 16.1 mph N/A   Clear
2:15 PM 82.4 °F 37.4 °F 20% 29.76 in 10.0 mi NNW 13.8 mph 20.7 mph N/A   Clear
2:35 PM 84.2 °F 35.6 °F 18% 29.76 in 10.0 mi North 16.1 mph 23.0 mph N/A   Clear
2:55 PM 82.4 °F 35.6 °F 19% 29.76 in 10.0 mi North 15.0 mph 19.6 mph N/A   Clear
3:15 PM 82.4 °F 37.4 °F 20% 29.76 in 10.0 mi North 10.4 mph 24.2 mph N/A   Clear
3:35 PM 82.4 °F 35.6 °F 19% 29.76 in 10.0 mi North 18.4 mph 26.5 mph N/A   Clear
3:55 PM 86.0 °F 37.4 °F 18% 29.75 in 10.0 mi North 15.0 mph 21.9 mph N/A   Clear
4:15 PM 84.2 °F 37.4 °F 19% 29.76 in 10.0 mi North 13.8 mph 23.0 mph N/A   Clear
4:35 PM 86.0 °F 37.4 °F 18% 29.76 in 10.0 mi North 13.8 mph 23.0 mph N/A   Clear
4:55 PM 86.0 °F 35.6 °F 17% 29.76 in 10.0 mi NE 15.0 mph 19.6 mph N/A   Clear
5:15 PM 86.0 °F 37.4 °F 18% 29.76 in 10.0 mi North 12.7 mph 23.0 mph N/A   Clear
5:35 PM 86.0 °F 37.4 °F 18% 29.77 in 10.0 mi North 15.0 mph 24.2 mph N/A   Clear
5:55 PM 84.2 °F 37.4 °F 19% 29.78 in 10.0 mi North 19.6 mph 25.3 mph N/A   Clear
6:15 PM 84.2 °F 37.4 °F 19% 29.79 in 10.0 mi NNE 13.8 mph 24.2 mph N/A   Clear
6:35 PM 84.2 °F 39.2 °F 20% 29.79 in 10.0 mi NNE 17.3 mph 24.2 mph N/A   Clear
6:55 PM 82.4 °F 39.2 °F 21% 29.81 in 10.0 mi NNE 18.4 mph 23.0 mph N/A   Clear
7:15 PM 82.4 °F 37.4 °F 20% 29.82 in 10.0 mi NNE 12.7 mph 21.9 mph N/A   Clear
7:35 PM 80.6 °F 37.4 °F 21% 29.82 in 10.0 mi NNE 11.5 mph 18.4 mph N/A   Clear
7:55 PM 80.6 °F 35.6 °F 20% 29.84 in 10.0 mi NNE 10.4 mph - N/A   Clear
8:35 PM 77.0 °F 35.6 °F 22% 29.86 in 10.0 mi NNE 8.1 mph - N/A   Clear
8:55 PM 75.2 °F 35.6 °F 24% 29.87 in 10.0 mi NNE 6.9 mph - N/A   Clear
9:15 PM 73.4 °F 37.4 °F 27% 29.88 in 10.0 mi NE 6.9 mph - N/A   Clear
9:55 PM 71.6 °F 37.4 °F 29% 29.90 in 10.0 mi NNE 5.8 mph - N/A   Clear
10:15 PM 71.6 °F 39.2 °F 31% 29.91 in 10.0 mi NE 10.4 mph - N/A   Clear
10:35 PM 68.0 °F 39.2 °F 35% 29.91 in 10.0 mi Calm Calm - N/A   Clear
10:55 PM 64.4 °F 41.0 °F 42% 29.91 in 10.0 mi Calm Calm - N/A   Clear
11:15 PM 64.4 °F 41.0 °F 42% 29.92 in 10.0 mi Calm Calm - N/A   Clear
11:35 PM 64.4 °F 41.0 °F 42% 29.92 in 10.0 mi Calm Calm - N/A   Clear
11:55 PM 62.6 °F 41.0 °F 45% 29.93 in 10.0 mi NNE 3.5 mph - N/A   Clear